[[{"header":{"parameterUnit":"m.s-1","parameterCategory":1,"la1":30.2991,"la2":30.254,"lo1":-89.0895,"lo2":-89.0444,"dy":0.0017,"dx":0.0017,"nx":28,"ny":28,"refTime":"2025-07-24T09:00:00:Z","depth":0,"parameterNumber":2,"parameterNumberName":"U-component_of_WINDS"},"data":[0,0,0,0,0,0,0,0,0,0,0,0,0,0,0,0,0,0,0,0,0,0,0,0,0,0,0,0,0,0,0,0,0,0,0,0,0,0,0,0,0,0,0,0,0,0,0,0,0,0,0,0,0,0,0,0,0,0,-3.3077,-3.3077,0,-3.312,-3.312,-3.312,-3.3094,-3.3093,-3.3092,-3.309,-3.3134,-3.3136,-3.3138,0,0,0,0,0,0,0,0,0,0,0,0,0,-3.2972,-3.2974,-3.3077,-3.3077,-3.3078,-3.3119,-3.312,-3.3121,-3.3094,-3.3093,-3.3091,-3.309,-3.3133,-3.3136,-3.3138,0,0,0,0,0,0,0,0,0,0,0,0,0,-3.3016,-3.2974,-3.3077,-3.307,-3.3069,-3.3119,-3.312,-3.3121,-3.3095,-3.3093,-3.3091,-3.3089,-3.3132,-3.3135,-3.3139,-3.3198,0,0,-3.3149,-3.3151,0,0,0,0,0,0,0,0,-3.3014,-3.302,-3.307,-3.307,-3.307,-3.31,-3.3099,-3.3147,-3.3095,-3.3085,-3.309,-3.3088,-3.3124,-3.3128,-3.314,-3.32,-3.3202,-3.315,-3.3152,-3.3153,-3.3154,0,0,0,0,0,0,0,-3.3011,-3.3018,-3.3094,-3.3071,-3.3071,-3.3064,-3.3068,-3.3108,-3.3114,-3.3086,-3.3084,-3.3089,-3.3123,-3.3137,-3.3141,-3.3202,-3.315,-3.3153,-3.3155,-3.3156,-3.3312,-3.3314,0,0,0,0,0,0,-3.3008,-3.3016,-3.3092,-3.3095,-3.3037,-3.3068,-3.3072,-3.3092,-3.3114,-3.3115,-3.3091,-3.3088,-3.3132,-3.3137,-3.3142,-3.3212,-3.3153,-3.3157,-3.3159,-3.331,-3.3312,-3.3314,0,0,0,0,0,0,-3.3006,-3.3015,-3.3091,-3.3055,-3.3064,-3.3071,-3.3094,-3.3094,-3.3107,-3.3118,-3.3119,-3.3103,-3.313,-3.3137,-3.3184,-3.3213,-3.3158,-3.3161,-3.3307,-3.331,-3.3313,-3.3352,0,0,0,0,0,0,-3.3003,-3.3015,-3.3037,-3.3056,-3.3066,-3.3132,-3.3095,-3.3096,-3.3113,-3.311,-3.313,-3.3131,-3.3129,-3.3179,-3.3187,-3.3217,-3.3164,-3.3305,-3.3309,-3.3312,-3.3348,-3.3356,-3.3363,0,0,0,0,0,-3.2999,-3.3047,-3.3039,-3.3048,-3.3094,-3.3134,-3.314,-3.3137,-3.3116,-3.3138,-3.3145,-3.3131,-3.3209,-3.3184,-3.3193,-3.3224,-3.3303,-3.3307,-3.3312,-3.3345,-3.3355,-3.3363,0,0,0,0,0,0,-3.3031,-3.3049,-3.304,-3.3095,-3.3113,-3.3129,-3.3158,-3.3147,-3.3172,-3.3167,-3.3163,-3.3167,-3.3216,-3.3225,-3.3197,-3.3282,-3.3252,-3.3259,-3.3274,-3.3283,-3.3291,-3.3287,-3.3167,0,0,0,0,0,-3.3045,-3.3076,-3.3089,-3.3136,-3.3145,-3.315,-3.3167,-3.3163,-3.3182,-3.319,-3.32,-3.3218,-3.3247,-3.3266,-3.3293,-3.335,-3.3353,-3.3376,-3.3383,-3.3389,-3.3394,-3.3424,-3.3434,-3.3329,-3.3329,-3.3329,0,0,-3.3073,-3.3086,-3.3106,-3.3143,-3.3156,-3.3188,-3.3157,-3.3192,-3.3215,-3.3195,-3.3239,-3.3248,-3.3268,-3.332,-3.3343,-3.3328,-3.3424,-3.3395,-3.3399,-3.3402,-3.343,-3.344,-3.3449,-3.3333,-3.3332,-3.3331,0,0,-3.314,-3.3154,-3.3194,-3.3208,-3.3229,-3.3232,-3.3241,-3.3259,-3.3264,-3.3309,-3.3294,-3.3322,-3.3371,-3.3386,-3.34,-3.3472,-3.346,-3.3481,-3.3519,-3.3548,-3.3557,-3.3564,-3.3589,-3.3598,-3.3487,-3.3487,-3.3487,0,-3.3172,-3.3219,-3.3216,-3.3251,-3.3268,-3.3251,-3.3291,-3.3305,-3.3334,-3.3346,-3.3329,-3.3391,-3.3403,-3.3458,-3.3476,-3.3488,-3.3498,-3.3479,-3.3556,-3.3563,-3.357,-3.3594,-3.3603,-3.349,-3.3489,-3.3489,-3.3489,0,-3.3257,-3.329,-3.332,-3.3348,-3.3368,-3.3406,-3.3407,-3.3428,-3.3422,-3.3427,-3.3472,-3.3487,-3.3516,-3.3529,-3.3524,-3.3583,-3.3573,-3.3556,-3.3526,-3.3582,-3.3604,-3.3614,-3.3493,-3.3492,-3.3491,-3.3491,0,0,-3.3345,-3.3371,-3.3382,-3.3394,-3.3416,-3.3441,-3.3478,-3.3507,-3.3524,-3.3545,-3.3575,-3.3617,-3.3602,-3.3618,-3.3614,-3.364,-3.3696,-3.362,-3.3621,-3.3633,-3.376,-3.3772,-3.3783,-3.3688,-3.3689,-3.3691,-3.3758,0,-3.3413,-3.3478,-3.3475,-3.3535,-3.3565,-3.355,-3.3582,-3.3599,-3.3604,-3.363,-3.3635,-3.3665,-3.3643,-3.3652,-3.3677,-3.3684,-3.3721,-3.3679,-3.3715,-3.3716,-3.371,-3.3794,-3.3807,-3.387,-3.3767,-3.3768,-3.377,0,-3.3501,-3.3524,-3.3587,-3.3604,-3.3616,-3.3645,-3.3671,-3.3696,-3.3714,-3.3716,-3.3734,-3.3726,-3.3763,-3.3733,-3.3783,-3.3755,-3.377,-3.3775,-3.3777,-3.378,-3.3746,-3.3799,-3.389,-3.39,-3.3783,-3.3782,-3.3781,0,-3.3558,-3.3605,-3.3648,-3.3659,-3.368,-3.3701,-3.3711,-3.3727,-3.3744,-3.3767,-3.3778,-3.3805,-3.3819,-3.384,-3.3839,-3.3817,-3.389,-3.386,-3.3892,-3.3892,-3.3907,-3.3906,-3.4002,-3.3919,-3.3918,-3.3918,-3.3918,0,-3.3633,-3.3672,-3.3674,-3.3701,-3.3744,-3.3741,-3.3783,-3.3791,-3.3806,-3.3833,-3.3822,-3.3848,-3.3846,-3.3873,-3.3873,-3.3914,-3.3921,-3.3923,-3.3922,-3.3923,-3.3923,-3.3932,-3.3928,-3.3921,-3.392,-3.392,-3.3919,0,-3.3704,-3.3707,-3.3753,-3.3769,-3.3774,-3.3805,-3.3818,-3.3844,-3.3848,-3.3883,-3.3891,-3.3897,-3.3927,-3.3929,-3.3964,-3.3964,-3.4014,-3.4009,-3.4008,-3.4007,-3.4038,-3.4035,-3.4143,-3.4157,-3.4065,-3.4066,-3.4066,0,-3.3752,-3.3781,-3.38,-3.3818,-3.3829,-3.3857,-3.3875,-3.3873,-3.3891,-3.3914,-3.3936,-3.3966,-3.3989,-3.4038,-3.4046,-3.4072,-3.4067,-3.4103,-3.4071,-3.4071,-3.4067,-3.4065,-3.4067,-3.4109,-3.411,-3.4111,-3.4112,0,-3.3836,-3.3835,-3.3861,-3.3887,-3.3908,-3.3928,-3.3947,-3.3962,-3.3963,-3.3984,-3.4015,-3.4033,-3.4068,-3.4097,-3.4123,-3.4133,-3.4122,-3.4122,-3.413,-3.4132,-3.4129,-3.413,-3.4024,-3.4119,-3.4118,-3.4118,-3.4117,-3.4117,-3.3896,-3.3921,-3.3938,-3.3967,-3.3981,-3.3999,-3.4023,-3.403,-3.4055,-3.4084,-3.4081,-3.4115,-3.4132,-3.4166,-3.4178,-3.4204,-3.4192,-3.4205,-3.4208,-3.4211,-3.4214,-3.4126,-3.4209,-3.4209,-3.4208,-3.4208,-3.4208,0,-3.3979,-3.3989,-3.4015,-3.4042,-3.4064,-3.4052,-3.4073,-3.4092,-3.4122,-3.4139,-3.4162,-3.4197,-3.4225,-3.4235,-3.4262,-3.4281,-3.4276,-3.4288,-3.4286,-3.4288,-3.4224,-3.4213,-3.4291,-3.4291,-3.4291,-3.4291,-3.4291,-3.4291,-3.4024,-3.4066,-3.4068,-3.4116,-3.4126,-3.4159,-3.4172,-3.4188,-3.4201,-3.4241,-3.4264,-3.427,-3.4284,-3.4312,-3.4336,-3.4338,-3.4349,-3.4362,-3.4362,-3.4301,-3.4293,-3.4285,-3.4275,-3.4364,-3.4364,-3.4424,-3.4425,-3.4425]},{"header":{"parameterUnit":"m.s-1","parameterCategory":1,"la1":30.2991,"la2":30.254,"lo1":-89.0895,"lo2":-89.0444,"dy":0.0017,"dx":0.0017,"nx":28,"ny":28,"refTime":"2025-07-24T09:00:00:Z","depth":0,"parameterNumber":3,"parameterNumberName":"V-component_of_WINDS"},"data":[0,0,0,0,0,0,0,0,0,0,0,0,0,0,0,0,0,0,0,0,0,0,0,0,0,0,0,0,0,0,0,0,0,0,0,0,0,0,0,0,0,0,0,0,0,0,0,0,0,0,0,0,0,0,0,0,0,0,6.2001,6.2001,0,6.2081,6.2082,6.2083,6.207,6.2068,6.2067,6.2066,6.2144,6.2147,6.215,0,0,0,0,0,0,0,0,0,0,0,0,0,6.1828,6.1832,6.2,6.2001,6.2002,6.2081,6.2082,6.2083,6.207,6.2068,6.2067,6.2065,6.2143,6.2147,6.2151,0,0,0,0,0,0,0,0,0,0,0,0,0,6.1905,6.1833,6.2,6.2005,6.2007,6.2081,6.2082,6.2084,6.207,6.2068,6.2066,6.2064,6.2141,6.2146,6.2151,6.2224,0,0,6.2167,6.2169,0,0,0,0,0,0,0,0,6.1901,6.1912,6.2004,6.2005,6.2007,6.2063,6.205,6.213,6.2071,6.2046,6.2066,6.2063,6.2118,6.2125,6.2145,6.2228,6.2231,6.2167,6.217,6.2172,6.2174,0,0,0,0,0,0,0,6.1896,6.1908,6.2032,6.2005,6.2007,6.2002,6.201,6.2065,6.2093,6.2048,6.2047,6.2057,6.2119,6.214,6.2146,6.2232,6.2167,6.2171,6.2175,6.2177,6.2375,6.2378,0,0,0,0,0,0,6.189,6.1904,6.203,6.2035,6.1948,6.2006,6.2016,6.2047,6.2092,6.2097,6.2059,6.2056,6.2132,6.2141,6.2149,6.2236,6.2172,6.2177,6.218,6.2373,6.2376,6.2378,0,0,0,0,0,0,6.1886,6.1901,6.2026,6.1969,6.1985,6.2012,6.2047,6.205,6.2071,6.21,6.2105,6.2076,6.2131,6.2142,6.2205,6.2238,6.2179,6.2184,6.2371,6.2374,6.2377,6.241,0,0,0,0,0,0,6.1881,6.19,6.193,6.197,6.1988,6.2083,6.2049,6.2053,6.208,6.2078,6.2117,6.2122,6.213,6.2198,6.221,6.2244,6.2188,6.2368,6.2372,6.2376,6.2406,6.2414,6.2421,0,0,0,0,0,6.1875,6.1935,6.1931,6.1946,6.2026,6.2085,6.2095,6.2105,6.2083,6.2112,6.213,6.2121,6.2233,6.2204,6.2218,6.2254,6.2366,6.2371,6.2376,6.2403,6.2413,6.2421,0,0,0,0,0,0,6.1897,6.1941,6.1937,6.2012,6.2045,6.2083,6.212,6.2115,6.2154,6.215,6.2158,6.2167,6.2231,6.2249,6.2216,6.2325,6.2296,6.2304,6.2312,6.2321,6.2328,6.2322,6.2192,0,0,0,0,0,6.1911,6.1957,6.1992,6.2055,6.2072,6.2093,6.2119,6.2124,6.2157,6.2171,6.2194,6.2226,6.2268,6.2295,6.2336,6.2408,6.2416,6.244,6.2447,6.2453,6.246,6.2497,6.2507,6.2395,6.2395,6.2395,0,0,6.194,6.1969,6.1998,6.206,6.2086,6.2132,6.2105,6.2155,6.2188,6.2178,6.2239,6.2257,6.2293,6.236,6.2391,6.2377,6.2492,6.246,6.2464,6.2468,6.2503,6.2514,6.2523,6.2398,6.2398,6.2397,0,0,6.2015,6.2043,6.2098,6.2124,6.2164,6.2177,6.219,6.2228,6.224,6.2302,6.2294,6.2333,6.2406,6.2431,6.2453,6.2535,6.2527,6.2548,6.2587,6.2623,6.2632,6.264,6.2667,6.2677,6.2555,6.2555,6.2555,0,6.2046,6.2116,6.2126,6.2177,6.2203,6.2197,6.225,6.2275,6.2325,6.2343,6.2327,6.2416,6.244,6.2512,6.2532,6.2551,6.2564,6.2544,6.263,6.2638,6.2645,6.2672,6.2682,6.2557,6.2557,6.2556,6.2556,0,6.215,6.2199,6.2238,6.2288,6.2318,6.237,6.2385,6.2415,6.2416,6.243,6.2491,6.2519,6.2564,6.2581,6.2582,6.2653,6.2643,6.2628,6.2599,6.2658,6.2683,6.2693,6.256,6.2559,6.2559,6.2558,0,0,6.2244,6.2297,6.2311,6.2332,6.2375,6.2411,6.2461,6.2506,6.253,6.2565,6.2605,6.2666,6.2652,6.2677,6.2681,6.2713,6.2774,6.2694,6.2695,6.2707,6.285,6.2861,6.2872,6.2768,6.277,6.2772,6.2847,0,6.2323,6.2413,6.2422,6.2502,6.2545,6.2538,6.2581,6.2611,6.2624,6.2661,6.2676,6.2718,6.2698,6.2712,6.2744,6.276,6.2802,6.2754,6.2804,6.2806,6.2795,6.2886,6.2897,6.2967,6.2857,6.2858,6.286,0,6.2427,6.2465,6.255,6.2583,6.2602,6.2641,6.2681,6.2718,6.2749,6.2757,6.2784,6.2783,6.2831,6.28,6.2866,6.2833,6.2854,6.2864,6.2867,6.2872,6.2836,6.2892,6.2989,6.2999,6.2875,6.2874,6.2873,0,6.2485,6.2557,6.2616,6.2635,6.2676,6.2703,6.2721,6.2751,6.2777,6.2811,6.2828,6.2867,6.2888,6.2918,6.2926,6.2903,6.2991,6.2961,6.2997,6.2997,6.3016,6.3015,6.3117,6.3031,6.303,6.303,6.303,0,6.2572,6.2624,6.2643,6.2679,6.2735,6.2744,6.2799,6.2815,6.2841,6.2879,6.2874,6.2909,6.2919,6.2955,6.2961,6.3014,6.3023,6.3029,6.303,6.303,6.3029,6.3043,6.3038,6.3033,6.3032,6.3032,6.3031,0,6.2647,6.2662,6.2726,6.2759,6.2769,6.2808,6.2836,6.287,6.2882,6.2929,6.2941,6.296,6.3001,6.3013,6.3063,6.3067,6.3128,6.3125,6.3118,6.3118,6.3153,6.3149,6.3268,6.3283,6.3187,6.3188,6.3188,0,6.2701,6.2741,6.2778,6.2803,6.2823,6.2864,6.289,6.2898,6.2925,6.2962,6.2991,6.3032,6.3066,6.3133,6.315,6.3187,6.3184,6.3223,6.319,6.3187,6.3183,6.318,6.3183,6.3229,6.323,6.3231,6.3232,0,6.2795,6.28,6.2839,6.2879,6.291,6.2942,6.2972,6.2992,6.3005,6.3034,6.3077,6.3103,6.3154,6.3194,6.3232,6.3248,6.3241,6.3242,6.3252,6.3252,6.3245,6.3248,6.3134,6.3239,6.3239,6.3238,6.3238,6.3237,6.2861,6.2895,6.2926,6.2968,6.2991,6.3019,6.3052,6.3068,6.3104,6.3147,6.3149,6.3195,6.3223,6.3272,6.3291,6.3325,6.3313,6.3329,6.3332,6.3336,6.3338,6.324,6.3332,6.3332,6.3332,6.3332,6.3332,0,6.2954,6.2973,6.3011,6.3054,6.3086,6.3078,6.311,6.3137,6.3178,6.3205,6.3238,6.3286,6.3324,6.3343,6.3381,6.3405,6.3403,6.3414,6.3412,6.3416,6.3347,6.3334,6.3415,6.3415,6.3415,6.3415,6.3415,6.3415,6.3006,6.3062,6.307,6.3136,6.3155,6.3201,6.322,6.3244,6.3266,6.332,6.3352,6.3364,6.3388,6.3426,6.346,6.3465,6.3478,6.3491,6.3494,6.3429,6.3421,6.3413,6.3401,6.3494,6.3495,6.356,6.356,6.3561]}]]